STARLINK-30099, 56304

Orbit data source: Space-Track

STARLINK-30099, 56304 is a payload satellite owned by SpaceX/Seattle (US) in LEO that was launched on Wed, 19 Apr 2023 UTC via an FALCON 9 launch vehicle from the Air Force Eastern Test Range (AFETR). Payload-class satellites include a variety of spacecraft equipped with specific instruments for various scientific and technological missions. These include communications satellites like Starlink; space stations such as the ISS; scientific satellites like the Hubble; Earth observation satellites from companies like Planet Labs, Umbra, and HawkEye 360; GPS; miniature CubeSats for education and research; and military/defense satellites.

Loading next visibility...
Identifier
56304, 2023-056U
Orbit
LEO
Country
Flag of USUS
Related business
Manufacturer
SpaceX/Seattle
Mission
Operational Commercial Communications
Bus & Motor
STARLINK V2M, Unknown motor
Mass
730 kg wet, ~700 kg dry
Launch date (UTC)
2023-04-19 (3 years ago)
Launch vehicle
FALCON 9
Launch site
Air Force Eastern Test Range (AFETR)
Object type
Payload
Rocket body
Debris
Shape & HBR
Box + 2 Pan, 17.7 m
Radar Cross Section
33.884 m², Large (>1 m²)

Expand to show TLE details & history
Last TLE update: 2 days ago

TLE from 2 days ago
0 STARLINK-30099
1 56304U 23056U   26170.96200429  .00001169  00000-0  52026-4 0  9998
2 56304  43.0056 351.0459 0001761 262.9829  97.0822 15.27577984175745
Epoch: 2026-06-19T23:05Z
TLE epoch observation values (Epoch: 2026-06-19T23:05:17.170Z)
Latitude
-0.00006°
Longitude
96.54084°
Altitude
482.98 km
Speed
7.626 km/s
True Right ascension
23h 24m 11s
True Declination
0° 00' 00"
Sunlit
Object was in daylight at epoch
Visualization orbit readout
Latitude
Unknown
Longitude
Unknown
Altitude
Unknown
Speed
Unknown
Apparent Right ascension
Unknown
Apparent Declination
Unknown
Sunlit
N/A
Visualization observer readout
Local Sidereal Time
21:42:45
Azimuth
Unknown
Elevation
Unknown
Doppler factor
Unknown
Orbital elements
Apogee altitude
486.208 km
Perigee altitude
483.791 km
Semi-major axis
6,863.136 km
Eccentricity
0.00018
Inclination
43.0056°
RAAN
351.0459°
Arg. of periapsis
262.9829°
True anomaly
97.10223°
Mean anomaly
97.0822°
Eccentric anomaly
97.09221°
Mean motion
3.81733 °/min
Orbital period
94.31 mins
BSTAR
0.000052026
Loading maneuver chart data...
Computing Atmospheric mass density...
Loading historical data...
Loading historical data...
Loading historical data...
Loading historical data...
Loading historical data...
Loading historical data...
Loading historical data...

Documentation

Showing up to 5 results
|